KD2VWU Weather Reports


Display with metric or nautical units.
time (UTC)temp
F
wind
direction
speed
MPH
gust
MPH
rain 1hr
in
rain 24hr
in
rain mn
in
humidity
%
barometer
mb
20260906134555 66 62 0.0 0.0 0.00 0.00 0.00 90 1012.3
20260906134055 65 60 0.0 0.0 0.00 0.00 0.00 92 1012.2
20260906133550 64 66 0.0 0.0 0.00 0.00 0.00 94 1012.3
20260906133046 64 69 0.0 0.0 0.00 0.00 0.00 93 1012.3
20260906132541 64 64 0.0 0.0 0.00 0.00 0.00 93 1012.2
20260906132036 64 49 0.0 1.0 0.00 0.00 0.00 93 1012.2
20260906131532 64 65 0.0 0.0 0.00 0.00 0.00 94 1012.3
20260906130526 63 65 0.0 0.0 0.00 0.00 0.00 93 1012.5
20260906130021 64 61 0.0 0.0 0.00 0.00 0.00 94 1012.4
20260906125519 63 69 0.0 0.0 0.00 0.00 0.00 93 1012.2
20260906125013 63 63 0.0 0.0 0.00 0.00 0.00 93 1012.3
20260906124509 63 52 0.0 0.0 0.00 0.00 0.00 93 1012.2
20260906124003 63 33 0.0 1.0 0.00 0.00 0.00 96 1012.0
20260906123457 62 67 0.0 0.0 0.00 0.00 0.00 95 1012.2
20260906122957 62 42 0.0 0.0 0.00 0.00 0.00 96 1012.1
20260906122452 62 57 0.0 0.0 0.00 0.00 0.00 95 1011.9
20260906121948 62 52 0.0 1.0 0.00 0.00 0.00 95 1011.8
20260906121444 62 53 0.0 0.0 0.00 0.00 0.00 96 1011.9
20260906120941 62 31 1.0 1.0 0.00 0.00 0.00 96 1012.0
20260906120436 62 36 1.0 1.0 0.00 0.00 0.00 97 1011.7
20260906115932 62 51 0.0 0.0 0.00 0.00 0.00 97 1011.9
20260906115427 62 56 0.0 0.0 0.00 0.00 0.00 99 1011.9
20260906114926 62 32 0.0 1.0 0.00 0.00 0.00 99 1011.9
20260906114421 62 63 0.0 0.0 0.00 0.00 0.00 98 1011.6
20260906113917 62 53 0.0 0.0 0.00 0.00 0.00 99 1011.6
20260906113415 62 52 0.0 0.0 0.00 0.00 0.00 98 1011.8
20260906112912 61 28 0.0 1.0 0.00 0.00 0.00 98 1011.8
20260906112407 61 30 1.0 1.0 0.00 0.00 0.00 98 1011.8
20260906111902 62 58 0.0 0.0 0.00 0.00 0.00 99 1011.6
20260906111402 62 56 0.0 0.0 0.00 0.00 0.00 99 1011.4
20260906110856 61 59 0.0 0.0 0.00 0.00 0.00 99 1011.5
20260906110352 61 45 0.0 0.0 0.00 0.00 0.00 99 1011.5
20260906105851 61 37 0.0 1.0 0.00 0.00 0.00 99 1011.3
20260906105347 61 53 0.0 0.0 0.00 0.00 0.00 99 1011.3
20260906104843 61 53 0.0 0.0 0.00 0.00 0.00 99 1011.1
20260906104341 61 67 0.0 0.0 0.00 0.00 0.00 99 1010.9
20260906103840 61 58 0.0 0.0 0.00 0.00 0.00 99 1010.9
20260906103338 61 61 0.0 0.0 0.00 0.00 0.00 99 1010.9
20260906102835 61 59 0.0 0.0 0.00 0.00 0.00 99 1010.9
20260906102333 61 60 0.0 0.0 0.00 0.00 0.00 99 1010.7
20260906101829 61 61 0.0 0.0 0.00 0.00 0.00 99 1010.8
20260906101324 62 55 0.0 0.0 0.00 0.00 0.00 99 1010.6
20260906100819 62 54 0.0 0.0 0.00 0.00 0.00 99 1010.5
20260906100318 62 52 0.0 0.0 0.00 0.00 0.00 99 1010.3
20260906095813 62 55 0.0 0.0 0.00 0.00 0.00 99 1010.4
20260906095309 62 58 0.0 0.0 0.00 0.00 0.00 99 1010.3
20260906094808 62 58 0.0 0.0 0.00 0.00 0.00 99 1010.5
20260906094303 62 58 0.0 0.0 0.00 0.00 0.00 99 1010.2
20260906093800 62 62 0.0 0.0 0.00 0.00 0.00 99 1010.3
20260906093255 62 53 0.0 0.0 0.00 0.00 0.00 99 1010.3
20260906092750 62 54 0.0 0.0 0.00 0.00 0.00 99 1009.9
20260906092244 62 52 0.0 0.0 0.00 0.00 0.00 99 1010.3
20260906091740 62 50 0.0 0.0 0.00 0.00 0.00 99 1010.3
20260906091236 62 37 0.0 0.0 0.00 0.00 0.00 99 1010.3
20260906090732 62 39 0.0 0.0 0.00 0.00 0.00 99 1010.3
20260906090231 62 33 0.0 0.0 0.00 0.00 0.00 99 1010.2
20260906085731 62 38 1.0 1.0 0.00 0.00 0.00 99 1010.3
20260906085230 62 35 0.0 1.0 0.00 0.00 0.00 99 1009.8
20260906084724 62 44 0.0 0.0 0.00 0.00 0.00 99 1010.1
20260906084219 62 53 0.0 0.0 0.00 0.00 0.00 99 1010.1
20260906083714 62 53 0.0 0.0 0.00 0.00 0.00 99 1009.9
20260906083209 62 53 0.0 0.0 0.00 0.00 0.00 99 1009.7
20260906082704 63 55 0.0 0.0 0.00 0.00 0.00 99 1009.9
20260906082154 63 55 0.0 0.0 0.00 0.00 0.00 99 1009.7
20260906081649 63 36 0.0 0.0 0.00 0.00 0.00 99 1009.8
20260906081144 63 36 0.0 0.0 0.00 0.00 0.00 99 1009.6
20260906080641 63 53 0.0 0.0 0.00 0.00 0.00 99 1009.5
20260906080137 63 60 0.0 0.0 0.00 0.00 0.00 99 1009.8
20260906075636 63 63 0.0 0.0 0.00 0.00 0.00 99 1009.6
20260906075131 63 60 0.0 0.0 0.00 0.00 0.00 99 1009.7
20260906074626 63 54 0.0 0.0 0.00 0.00 0.00 99 1009.6
20260906074125 63 53 0.0 0.0 0.00 0.00 0.00 99 1009.6
20260906073620 63 47 0.0 0.0 0.00 0.00 0.00 99 1009.5
20260906073116 63 67 0.0 0.0 0.00 0.00 0.00 99 1009.5
20260906072611 63 66 0.0 0.0 0.00 0.00 0.00 99 1009.7
20260906072107 63 68 0.0 0.0 0.00 0.00 0.00 99 1009.5
20260906071603 63 65 0.0 0.0 0.00 0.00 0.00 99 1009.6
20260906071057 63 52 0.0 1.0 0.00 0.00 0.00 99 1009.5
20260906070554 63 67 0.0 0.0 0.00 0.00 0.00 99 1009.8
20260906070049 63 73 0.0 0.0 0.00 0.00 0.00 99 1009.6
20260906065548 62 69 0.0 0.0 0.00 0.00 0.00 99 1009.4
20260906065044 62 61 0.0 0.0 0.00 0.00 0.00 99 1009.6
20260906064540 62 85 0.0 0.0 0.00 0.00 0.00 99 1009.6
20260906064035 62 34 0.0 0.0 0.00 0.00 0.00 99 1009.6
20260906063530 62 27 0.0 1.0 0.00 0.00 0.00 99 1009.6
20260906063026 62 54 0.0 0.0 0.00 0.00 0.00 99 1009.6
20260906062521 62 54 0.0 0.0 0.00 0.00 0.00 99 1009.9
20260906062015 62 32 0.0 0.0 0.00 0.00 0.00 99 1009.7
20260906061511 62 81 0.0 0.0 0.00 0.00 0.00 99 1009.9
20260906061005 62 98 0.0 0.0 0.00 0.00 0.00 99 1009.9
20260906060502 62 65 0.0 0.0 0.00 0.00 0.00 99 1009.9
20260906055958 62 67 0.0 0.0 0.00 0.00 0.00 99 1009.9
20260906055454 62 71 0.0 0.0 0.00 0.00 0.00 99 1009.8
20260906054949 62 73 0.0 0.0 0.00 0.00 0.00 99 1009.9
20260906054449 62 73 0.0 0.0 0.00 0.00 0.00 99 1009.8
20260906053944 62 73 0.0 0.0 0.00 0.00 0.00 99 1009.9
20260906053441 62 54 0.0 0.0 0.00 0.00 0.00 99 1009.9
20260906052936 62 60 0.0 0.0 0.00 0.00 0.00 99 1009.7
20260906052432 62 55 0.0 0.0 0.00 0.00 0.00 99 1009.7
20260906051929 62 82 0.0 0.0 0.00 0.00 0.00 99 1009.7
20260906051424 62 63 0.0 0.0 0.00 0.00 0.00 99 1010.1
20260906050919 62 55 0.0 0.0 0.00 0.00 0.00 99 1010.3
20260906050414 62 52 0.0 0.0 0.00 0.00 0.00 99 1010.2
20260906045913 62 69 0.0 0.0 0.00 0.00 0.00 99 1009.9
20260906045412 62 82 0.0 0.0 0.00 0.00 0.00 99 1009.8
20260906044908 62 76 0.0 0.0 0.00 0.00 0.00 98 1010.1
20260906044403 63 78 0.0 0.0 0.00 0.00 0.00 98 1009.7
20260906043859 63 61 0.0 0.0 0.00 0.00 0.00 98 1009.8
20260906043355 63 55 0.0 0.0 0.00 0.00 0.00 98 1010.1
20260906042850 63 69 0.0 0.0 0.00 0.00 0.00 98 1009.7
20260906042348 63 61 0.0 0.0 0.00 0.00 0.00 97 1009.7
20260906041844 63 61 0.0 0.0 0.00 0.00 0.00 97 1009.8
20260906041340 63 60 0.0 0.0 0.00 0.00 0.00 97 1009.7
20260906040839 63 72 0.0 0.0 0.00 0.00 0.00 97 1009.9
20260906040335 63 82 0.0 0.0 0.00 0.00 0.00 97 1009.6
20260906035830 63 75 0.0 0.0 0.00 0.00 0.00 97 1009.8
20260906035325 63 53 0.0 0.0 0.00 0.00 0.00 97 1009.8
20260906034820 63 61 0.0 0.0 0.00 0.00 0.00 97 1009.8
20260906034315 63 82 0.0 0.0 0.00 0.00 0.00 97 1009.9
20260906033811 64 70 0.0 0.0 0.00 0.00 0.00 97 1009.6
20260906033310 64 57 0.0 0.0 0.00 0.00 0.00 97 1009.6
20260906032807 64 69 0.0 0.0 0.00 0.00 0.00 97 1009.7
20260906032305 64 82 0.0 0.0 0.00 0.00 0.00 97 1009.6
20260906031757 64 73 0.0 0.0 0.00 0.00 0.00 97 1009.7
20260906031253 64 75 0.0 0.0 0.00 0.00 0.00 96 1009.5
20260906030753 64 74 0.0 0.0 0.00 0.00 0.00 95 1009.5
20260906030248 64 71 0.0 0.0 0.00 0.00 0.00 95 1009.4
20260906025747 64 74 0.0 0.0 0.00 0.00 0.00 94 1009.2
20260906025242 64 69 0.0 0.0 0.00 0.00 0.00 94 1009.3
20260906024741 65 61 0.0 0.0 0.00 0.00 0.00 93 1009.2
20260906024240 65 62 0.0 0.0 0.00 0.00 0.00 93 1009.3
20260906023736 65 61 0.0 0.0 0.00 0.00 0.00 94 1009.2
20260906023231 65 60 0.0 0.0 0.00 0.00 0.00 94 1009.3
20260906022726 64 53 0.0 0.0 0.00 0.00 0.00 94 1009.1
20260906022221 64 64 0.0 0.0 0.00 0.00 0.00 93 1009.2
20260906021718 64 75 0.0 0.0 0.00 0.00 0.00 92 1009.2
20260906021216 65 75 0.0 0.0 0.00 0.00 0.00 92 1009.1
20260906020711 65 75 0.0 0.0 0.00 0.00 0.00 91 1009.2
20260906020206 66 75 0.0 0.0 0.00 0.00 0.00 90 1009.1
20260906015700 66 76 0.0 0.0 0.00 0.00 0.00 89 1009.1
20260906015158 67 55 1.0 1.0 0.00 0.00 0.00 87 1009.1
20260906014653 67 31 1.0 1.0 0.00 0.00 0.00 86 1009.3
20260906014149 67 54 0.0 0.0 0.00 0.00 0.00 87 1009.1
20260906013645 67 30 1.0 1.0 0.00 0.00 0.00 86 1008.8
20260906013140 67 33 1.0 1.0 0.00 0.00 0.00 86 1009.0
20260906012640 67 22 1.0 1.0 0.00 0.00 0.00 86 1009.1
20260906012134 68 37 2.0 2.0 0.00 0.00 0.00 85 1009.1
20260906011630 68 14 2.0 2.0 0.00 0.00 0.00 85 1009.1
20260906011125 68 14 1.0 1.0 0.00 0.00 0.00 84 1009.0
20260906010620 68 26 1.0 1.0 0.00 0.00 0.00 85 1009.0
20260906010116 68 27 1.0 2.0 0.00 0.00 0.00 84 1008.7
20260906005610 68 35 1.0 1.0 0.00 0.00 0.00 84 1008.9
20260906005109 68 40 2.0 2.0 0.00 0.00 0.00 84 1008.8
20260906004608 68 28 1.0 1.0 0.00 0.00 0.00 84 1008.7
20260906004103 68 14 1.0 1.0 0.00 0.00 0.00 83 1008.6
20260906003559 68 41 1.0 1.0 0.00 0.00 0.00 83 1008.7
20260906003054 68 57 0.0 0.0 0.00 0.00 0.00 83 1008.7
20260906002549 68 30 0.0 0.0 0.00 0.00 0.00 82 1008.4
20260906002043 68 38 1.0 2.0 0.00 0.00 0.00 83 1008.5
20260906001539 68 30 1.0 2.0 0.00 0.00 0.00 83 1008.4
20260906001033 68 24 2.0 2.0 0.00 0.00 0.00 83 1008.3
20260906000530 68 25 1.0 1.0 0.00 0.00 0.00 83 1008.3
20260906000024 68 28 0.0 1.0 0.00 0.00 0.00 82 1008.2
20260905235013 69 20 1.0 2.0 0.00 0.00 0.00 81 1008.0
20260905234508 69 38 1.0 1.0 0.00 0.00 0.00 81 1008.2
20260905234003 69 12 1.0 2.0 0.00 0.00 0.00 80 1008.1
20260905233458 69 26 1.0 1.0 0.00 0.00 0.00 80 1008.1
20260905232956 69 24 2.0 2.0 0.00 0.00 0.00 79 1008.2
20260905232453 70 39 1.0 1.0 0.00 0.00 0.00 78 1008.0
20260905231949 70 13 1.0 1.0 0.00 0.00 0.00 78 1007.8
20260905231444 70 9 1.0 2.0 0.00 0.00 0.00 77 1008.0
20260905230940 71 11 1.0 1.0 0.00 0.00 0.00 76 1007.9
20260905230439 71 8 2.0 2.0 0.00 0.00 0.00 75 1007.8
20260905225937 71 12 2.0 2.0 0.00 0.00 0.00 74 1007.9
20260905225433 71 12 1.0 2.0 0.00 0.00 0.00 75 1007.8
20260905224927 71 26 2.0 2.0 0.00 0.00 0.00 74 1007.6
20260905224423 71 44 1.0 1.0 0.00 0.00 0.00 74 1007.8
20260905223916 72 15 2.0 2.0 0.00 0.00 0.00 75 1007.8
20260905223415 72 39 1.0 1.0 0.00 0.00 0.00 75 1007.6
20260905222909 73 12 2.0 2.0 0.00 0.00 0.00 72 1007.7
20260905222408 73 26 2.0 2.0 0.00 0.00 0.00 72 1007.4
20260905221904 73 53 0.0 0.0 0.00 0.00 0.00 73 1007.5
20260905221401 74 29 1.0 1.0 0.00 0.00 0.00 73 1007.5
20260905220856 74 39 0.0 1.0 0.00 0.00 0.00 72 1007.4
20260905220352 74 61 0.0 0.0 0.00 0.00 0.00 71 1007.5
20260905215851 74 16 1.0 1.0 0.00 0.00 0.00 72 1007.4
20260905215347 74 44 0.0 1.0 0.00 0.00 0.00 71 1007.1
20260905214844 74 8 1.0 1.0 0.00 0.00 0.00 70 1007.4
20260905214338 74 26 3.0 3.0 0.00 0.00 0.00 69 1007.3
20260905213833 74 22 1.0 1.0 0.00 0.00 0.00 69 1007.5
20260905213329 75 32 1.0 2.0 0.00 0.00 0.00 67 1007.5
20260905212819 75 28 3.0 5.0 0.00 0.00 0.00 66 1007.3
20260905212319 75 22 2.0 2.0 0.00 0.00 0.00 65 1007.3
20260905211819 75 1 2.0 3.0 0.00 0.00 0.00 66 1007.1
20260905211314 75 9 3.0 3.0 0.00 0.00 0.00 65 1007.3
20260905210811 76 5 2.0 2.0 0.00 0.00 0.00 68 1007.2
20260905210310 76 17 2.0 2.0 0.00 0.00 0.00 66 1007.2
20260905205809 76 348 1.0 2.0 0.00 0.00 0.00 66 1007.2
20260905205306 76 20 1.0 1.0 0.00 0.00 0.00 67 1007.0
20260905204803 75 9 3.0 3.0 0.00 0.00 0.00 66 1007.1
20260905204259 75 37 3.0 3.0 0.00 0.00 0.00 66 1006.8
20260905203758 76 22 4.0 5.0 0.00 0.00 0.00 64 1006.9
20260905203254 76 15 4.0 5.0 0.00 0.00 0.00 66 1006.7
20260905202749 76 342 3.0 3.0 0.00 0.00 0.00 68 1007.1
20260905202244 75 7 2.0 2.0 0.00 0.00 0.00 67 1006.9
20260905201740 76 6 2.0 3.0 0.00 0.00 0.00 65 1007.1
20260905201235 76 21 3.0 3.0 0.00 0.00 0.00 65 1007.0
20260905200730 76 1 2.0 2.0 0.00 0.00 0.00 64 1006.9
20260905200226 77 13 2.0 2.0 0.00 0.00 0.00 64 1007.0
20260905195723 77 133 1.0 2.0 0.00 0.00 0.00 61 1006.9
20260905195218 76 13 2.0 3.0 0.00 0.00 0.00 63 1007.0
20260905194714 76 6 2.0 2.0 0.00 0.00 0.00 62 1007.1
20260905194213 77 16 1.0 1.0 0.00 0.00 0.00 64 1007.0
20260905193708 77 36 4.0 5.0 0.00 0.00 0.00 60 1007.0
20260905193203 76 5 2.0 2.0 0.00 0.00 0.00 65 1006.9
20260905192658 76 10 5.0 7.0 0.00 0.00 0.00 63 1007.0
20260905192155 77 31 2.0 2.0 0.00 0.00 0.00 64 1007.1
20260905191654 77 7 3.0 5.0 0.00 0.00 0.00 62 1006.9
20260905191152 76 21 2.0 2.0 0.00 0.00 0.00 64 1006.8
20260905190651 77 5 1.0 2.0 0.00 0.00 0.00 65 1006.8
20260905190150 77 14 2.0 2.0 0.00 0.00 0.00 64 1007.1
20260905185649 77 20 1.0 2.0 0.00 0.00 0.00 65 1007.0
20260905185144 76 28 4.0 5.0 0.00 0.00 0.00 64 1007.1
20260905184643 76 26 1.0 2.0 0.00 0.00 0.00 67 1007.2
20260905184142 77 6 4.0 5.0 0.00 0.00 0.00 64 1007.2
20260905183642 77 10 3.0 3.0 0.00 0.00 0.00 63 1007.3
20260905183137 77 26 2.0 2.0 0.00 0.00 0.00 66 1007.1
20260905182636 78 20 3.0 3.0 0.00 0.00 0.00 62 1007.3
20260905182131 77 11 1.0 2.0 0.00 0.00 0.00 65 1007.1
20260905181626 77 7 3.0 3.0 0.00 0.00 0.00 63 1007.2
20260905181125 77 24 2.0 2.0 0.00 0.00 0.00 64 1007.4
20260905180620 77 3 3.0 3.0 0.00 0.00 0.00 67 1007.3
20260905180115 77 23 1.0 2.0 0.00 0.00 0.00 69 1007.3
20260905175614 77 19 2.0 3.0 0.00 0.00 0.00 70 1007.3
20260905175110 76 350 3.0 3.0 0.00 0.00 0.00 66 1007.4
20260905174605 76 352 2.0 2.0 0.00 0.00 0.00 68 1007.6
20260905174101 76 37 2.0 2.0 0.00 0.00 0.00 69 1007.5
20260905173557 75 18 1.0 1.0 0.00 0.00 0.00 71 1007.8
20260905173052 77 66 1.0 1.0 0.00 0.00 0.00 66 1007.8
20260905172551 77 21 2.0 2.0 0.00 0.00 0.00 68 1007.7
20260905172046 77 349 1.0 2.0 0.00 0.00 0.00 67 1007.7
20260905171543 75 3 1.0 2.0 0.00 0.00 0.00 72 1007.9
20260905171038 76 24 1.0 2.0 0.00 0.00 0.00 70 1007.9
20260905170535 76 357 2.0 2.0 0.00 0.00 0.00 70 1007.8
20260905170030 77 352 4.0 5.0 0.00 0.00 0.00 70 1007.8
20260905165524 74 13 1.0 1.0 0.00 0.00 0.00 72 1007.9
20260905165020 73 50 0.0 1.0 0.00 0.00 0.00 74 1008.0
20260905164514 73 12 2.0 2.0 0.00 0.00 0.00 73 1007.8
20260905164009 75 2 1.0 2.0 0.00 0.00 0.00 74 1007.9
20260905163505 74 9 2.0 2.0 0.00 0.00 0.00 75 1007.9
20260905163001 73 0 2.0 2.0 0.00 0.00 0.00 75 1007.8
20260905162456 74 19 2.0 2.0 0.00 0.00 0.00 74 1007.8
20260905161951 74 4 2.0 2.0 0.00 0.00 0.00 73 1008.0
20260905161450 73 52 0.0 1.0 0.00 0.00 0.00 78 1007.6
20260905160949 74 41 1.0 1.0 0.00 0.00 0.00 72 1008.0
20260905160442 73 25 3.0 5.0 0.00 0.00 0.00 73 1007.8
20260905155941 73 31 3.0 3.0 0.00 0.00 0.00 74 1008.0
20260905155437 74 8 2.0 2.0 0.00 0.00 0.00 73 1008.1
20260905154935 75 16 1.0 2.0 0.00 0.00 0.00 72 1007.8
20260905154431 74 356 2.0 2.0 0.00 0.00 0.00 75 1007.8
20260905153926 73 341 3.0 3.0 0.00 0.00 0.00 74 1007.7
20260905153423 73 70 3.0 3.0 0.00 0.00 0.00 72 1007.9
20260905152922 73 28 2.0 3.0 0.00 0.00 0.00 72 1007.9
20260905152421 73 62 1.0 2.0 0.00 0.00 0.00 74 1007.8
20260905151917 73 62 1.0 1.0 0.00 0.00 0.00 74 1008.2
20260905151413 71 72 1.0 1.0 0.00 0.00 0.00 77 1008.1
20260905150913 71 9 2.0 3.0 0.00 0.00 0.00 77 1008.0
20260905150407 70 24 3.0 5.0 0.00 0.00 0.00 77 1008.2
20260905145904 70 10 3.0 3.0 0.00 0.00 0.00 78 1008.1
20260905145358 70 17 3.0 3.0 0.00 0.00 0.00 79 1008.0
20260905144858 70 17 3.0 5.0 0.00 0.00 0.00 78 1007.9
20260905144353 70 1 3.0 3.0 0.00 0.00 0.00 77 1007.9
20260905143851 70 13 3.0 3.0 0.00 0.00 0.00 79 1007.9
20260905143346 70 49 1.0 2.0 0.00 0.00 0.00 78 1007.8
20260905142840 70 32 3.0 3.0 0.00 0.00 0.00 79 1008.0
20260905142338 69 42 3.0 3.0 0.00 0.00 0.00 78 1007.8
20260905141835 69 34 2.0 2.0 0.00 0.00 0.00 80 1007.6
20260905141330 69 24 3.0 3.0 0.00 0.00 0.00 82 1007.8
20260905140826 69 343 2.0 2.0 0.00 0.00 0.00 83 1007.9
20260905140326 69 0 2.0 3.0 0.00 0.00 0.00 85 1007.7
20260905135824 68 25 1.0 2.0 0.00 0.00 0.00 83 1007.8
20260905135320 68 22 3.0 3.0 0.00 0.00 0.00 84 1007.8